{"data":{"norad_id":68781,"intl_designator":"2026-086R","name":"STARLINK-37236","alt_names":[],"object_type":"PAYLOAD","status":"ACTIVE","operator":null,"country":"US","launch_date":"2026-04-19","launch_site_code":"AFWTR","launch_vehicle":null,"mission":null,"orbit_class":"UNKNOWN","rcs_meters":null,"size_class":null,"mass_kg":null,"dimensions":null,"purposes":["comms"],"wikipedia_slug":null,"has_3d_model":false,"image_url":null,"decayed_at":null,"tle_current":{"epoch":"2026-09-19T08:54:34.221888Z","epoch_age_seconds":137639,"freshness":"FRESH","line1":"1 68781U 26086R   26262.37122942  .00018273  00000+0  56688-3 0  9996","line2":"2 68781  97.2866 297.8398 0000704  96.1844 263.9479 15.33450202 23515","mean_motion":15.33450202,"eccentricity":7.04e-5,"inclination_deg":97.2866,"raan_deg":297.8398,"arg_perigee_deg":96.1844,"mean_anomaly_deg":263.9479,"bstar":0.00056688,"rev_number":2351,"period_min":93.905886094109,"perigee_km":465.04590303513,"apogee_km":466.00949102447,"semimajor_km":6843.6646970298,"source":"CELESTRAK","updated_at":"2026-09-20T09:00:44.001354Z"}}}